GW3186 Weather Reports


time (UTC)temp
C
wind
direction
speed
KPH
gust
KPH
rain 1hr
cm
rain 24hr
cm
rain mn
cm
humidity
%
barometer
mb
20260507220851 12 21 0.0 0.0 0.00 0.15 0.15 88 1011.0
20260507220350 12 7 0.0 0.0 0.00 0.15 0.15 90 1011.0
20260507215846 12 12 0.0 0.0 0.00 0.15 0.15 89 1011.0
20260507215342 12 357 0.0 0.0 0.00 0.15 0.15 87 1011.0
20260507214840 12 29 0.0 1.6 0.00 0.15 0.15 87 1011.0
20260507214337 12 9 0.0 0.0 0.00 0.15 0.15 87 1011.3
20260507213832 12 339 0.0 0.0 0.00 0.15 0.15 85 1011.3
20260507213329 12 349 0.0 1.6 0.00 0.15 0.15 89 1011.3
20260507212826 12 2 0.0 0.0 0.00 0.15 0.15 88 1011.3
20260507212322 11 329 1.6 1.6 0.00 0.15 0.15 85 1011.0
20260507211818 11 0 0.0 0.0 0.00 0.15 0.15 89 1011.0
20260507211315 11 349 0.0 0.0 0.00 0.15 0.15 89 1011.0
20260507210812 11 333 1.6 1.6 0.00 0.15 0.15 88 1011.0
20260507210309 11 359 0.0 0.0 0.00 0.15 0.15 90 1011.3
20260507205805 11 345 0.0 0.0 0.00 0.15 0.15 91 1011.3
20260507205306 11 25 0.0 0.0 0.00 0.15 0.15 90 1011.0
20260507204758 11 335 1.6 1.6 0.00 0.15 0.15 89 1011.3
20260507204256 11 22 0.0 0.0 0.00 0.15 0.15 91 1011.0
20260507203754 11 13 0.0 0.0 0.00 0.15 0.15 90 1011.0
20260507203252 11 357 1.6 1.6 0.00 0.15 0.15 90 1011.0
20260507202748 11 346 0.0 0.0 0.00 0.15 0.15 90 1011.0
20260507202244 11 24 0.0 0.0 0.00 0.15 0.15 92 1011.0
20260507201738 11 356 0.0 1.6 0.00 0.15 0.15 93 1011.3
20260507201236 11 17 0.0 0.0 0.00 0.15 0.15 93 1011.3
20260507200732 11 10 0.0 0.0 0.00 0.15 0.15 94 1011.7
20260507200228 11 16 0.0 0.0 0.00 0.15 0.15 93 1011.3
20260507195724 11 26 0.0 0.0 0.00 0.15 0.15 93 1011.7
20260507195222 11 335 0.0 1.6 0.00 0.15 0.15 94 1011.7
20260507194719 11 320 0.0 1.6 0.00 0.15 0.15 94 1011.7
20260507194215 11 359 0.0 0.0 0.00 0.15 0.15 94 1011.3
20260507193712 11 345 0.0 0.0 0.00 0.15 0.15 93 1011.7
20260507193208 12 20 1.6 1.6 0.00 0.15 0.15 93 1011.7
20260507192704 12 41 1.6 1.6 0.00 0.15 0.15 92 1011.7
20260507192202 12 34 1.6 1.6 0.13 0.15 0.15 93 1011.7
20260507191657 12 10 0.0 0.0 0.13 0.15 0.15 92 1012.0
20260507191155 12 24 0.0 1.6 0.00 0.13 0.13 94 1012.4
20260507190651 12 354 0.0 1.6 0.00 0.13 0.13 93 1012.0
20260507190150 12 351 0.0 1.6 0.00 0.13 0.13 93 1011.7
20260507185648 12 28 0.0 0.0 0.00 0.13 0.13 94 1012.0
20260507185144 12 21 0.0 0.0 0.00 0.13 0.13 95 1011.7
20260507184642 12 20 0.0 0.0 0.00 0.13 0.13 95 1011.7
20260507184140 12 12 0.0 0.0 0.30 0.13 0.13 96 1012.0
20260507183636 11 0 0.0 0.0 0.30 0.13 0.13 96 1012.4
20260507183133 11 11 0.0 0.0 0.00 0.08 0.08 95 1012.0
20260507182630 11 11 0.0 0.0 0.00 0.08 0.08 95 1011.7
20260507182126 11 8 0.0 0.0 0.00 0.08 0.08 93 1012.0
20260507181622 11 7 0.0 0.0 0.00 0.08 0.08 91 1012.4
20260507181119 12 9 0.0 0.0 0.00 0.08 0.08 90 1012.0
20260507180615 12 8 0.0 1.6 0.18 0.08 0.08 89 1011.7
20260507180113 12 8 0.0 0.0 0.36 0.08 0.08 86 1012.0
20260507175608 12 2 0.0 0.0 0.00 0.03 0.03 80 1012.0
20260507175106 12 329 1.6 1.6 0.00 0.03 0.03 79 1012.4
20260507174603 12 359 0.0 1.6 0.00 0.03 0.03 81 1012.0
20260507174101 12 356 1.6 1.6 0.00 0.03 0.03 79 1012.4
20260507173557 12 14 0.0 0.0 0.00 0.03 0.03 80 1012.4
20260507173055 12 350 0.0 1.6 0.00 0.03 0.03 79 1012.4
20260507172550 12 7 1.6 1.6 0.00 0.03 0.03 83 1012.4
20260507172048 12 13 0.0 0.0 0.00 0.03 0.03 82 1012.4
20260507171543 12 8 0.0 0.0 0.00 0.03 0.03 85 1012.4
20260507171040 12 20 0.0 0.0 0.00 0.03 0.03 85 1012.4
20260507170537 12 20 0.0 0.0 0.00 0.03 0.03 84 1012.4
20260507170034 12 20 0.0 1.6 0.00 0.03 0.03 85 1012.4
20260507165529 12 297 3.2 3.2 0.00 0.03 0.03 85 1012.7
20260507165026 12 10 1.6 1.6 0.00 0.03 0.03 83 1012.4
20260507164522 12 8 0.0 0.0 0.00 0.03 0.03 84 1012.7
20260507164020 12 17 1.6 1.6 0.00 0.03 0.03 83 1012.7
20260507163517 12 3 1.6 1.6 0.00 0.03 0.03 84 1012.7
20260507163015 12 344 0.0 0.0 0.00 0.03 0.03 84 1013.0
20260507162509 12 19 1.6 1.6 0.00 0.03 0.03 85 1012.7
20260507162006 12 10 0.0 0.0 0.00 0.03 0.03 90 1012.7
20260507161503 12 23 0.0 0.0 0.00 0.03 0.03 90 1012.7
20260507161000 12 9 0.0 0.0 0.00 0.03 0.03 88 1013.0
20260507160455 12 17 0.0 0.0 0.00 0.03 0.03 90 1013.4
20260507155951 12 21 1.6 1.6 0.00 0.03 0.03 91 1013.4
20260507155448 12 25 1.6 1.6 0.00 0.03 0.03 92 1013.0
20260507154945 12 20 1.6 1.6 0.00 0.03 0.03 92 1013.4
20260507154441 12 22 0.0 0.0 0.00 0.03 0.03 92 1013.4
20260507153938 12 10 0.0 0.0 0.00 0.03 0.03 92 1013.4
20260507153435 12 41 0.0 1.6 0.00 0.03 0.03 93 1013.4
20260507152931 12 350 0.0 0.0 0.00 0.03 0.03 92 1013.4
20260507152428 12 16 0.0 0.0 0.00 0.03 0.03 93 1013.4
20260507151924 12 13 1.6 1.6 0.00 0.03 0.03 93 1013.4
20260507151420 12 17 0.0 0.0 0.00 0.03 0.03 94 1013.4
20260507150917 12 3 0.0 0.0 0.00 0.03 0.03 94 1013.4
20260507150414 12 4 0.0 0.0 0.00 0.03 0.03 95 1013.0
20260507145911 12 29 1.6 1.6 0.00 0.03 0.03 95 1013.0
20260507145406 12 13 0.0 0.0 0.00 0.03 0.03 95 1013.0
20260507144904 12 22 0.0 0.0 0.00 0.03 0.03 96 1013.0
20260507144401 12 21 0.0 1.6 0.00 0.03 0.03 95 1012.7
20260507143857 12 7 0.0 0.0 0.00 0.03 0.03 95 1013.0
20260507143355 12 28 0.0 0.0 0.00 0.03 0.03 95 1013.4
20260507142851 12 28 0.0 0.0 0.00 0.03 0.03 95 1013.4
20260507142347 12 27 0.0 0.0 0.00 0.03 0.03 95 1013.4
20260507141844 12 27 0.0 0.0 0.00 0.03 0.03 95 1013.4
20260507141341 12 0 0.0 0.0 0.00 0.03 0.03 94 1013.4
20260507140837 12 359 0.0 0.0 0.00 0.03 0.03 93 1013.4
20260507140334 12 25 0.0 0.0 0.00 0.03 0.03 92 1013.0
20260507135832 12 17 0.0 0.0 0.00 0.03 0.03 93 1013.8
20260507135329 12 16 0.0 0.0 0.00 0.03 0.03 93 1013.4
20260507134826 12 15 0.0 0.0 0.00 0.03 0.03 92 1013.4
20260507134322 12 6 0.0 0.0 0.00 0.03 0.03 92 1013.4
20260507133818 12 345 0.0 0.0 0.00 0.03 0.03 92 1013.4
20260507133314 12 18 0.0 0.0 0.00 0.03 0.03 92 1013.4
20260507132812 12 12 0.0 0.0 0.00 0.03 0.03 93 1013.4
20260507132308 12 296 1.6 1.6 0.00 0.03 0.03 92 1013.4
20260507131806 12 19 0.0 1.6 0.00 0.03 0.03 93 1013.4
20260507131302 12 347 0.0 0.0 0.00 0.03 0.03 92 1013.4
20260507130759 12 18 0.0 0.0 0.00 0.03 0.03 92 1013.4
20260507130257 12 10 0.0 1.6 0.00 0.03 0.03 92 1013.4
20260507125755 12 9 0.0 0.0 0.00 0.03 0.03 93 1013.4
20260507125252 12 17 0.0 0.0 0.00 0.03 0.03 92 1013.4
20260507124749 12 346 0.0 0.0 0.00 0.03 0.03 92 1013.4
20260507124246 12 346 0.0 0.0 0.00 0.03 0.03 92 1013.4
20260507123744 12 325 1.6 3.2 0.00 0.03 0.03 93 1013.0
20260507123241 12 8 0.0 0.0 0.00 0.03 0.03 93 1013.0
20260507122737 12 18 0.0 0.0 0.00 0.03 0.03 93 1013.4
20260507122233 12 25 1.6 1.6 0.00 0.03 0.03 93 1013.4
20260507121728 12 9 0.0 0.0 0.00 0.03 0.03 93 1013.4
20260507121225 12 7 0.0 0.0 0.00 0.03 0.03 94 1013.4
20260507120721 12 24 0.0 0.0 0.00 0.03 0.03 94 1013.0
20260507120218 12 350 0.0 1.6 0.00 0.03 0.03 94 1013.4
20260507115714 12 27 0.0 0.0 0.00 0.03 0.03 95 1013.0
20260507115210 12 2 0.0 0.0 0.00 0.03 0.03 95 1013.0
20260507114706 12 11 0.0 0.0 0.00 0.03 0.03 95 1013.0
20260507114204 12 22 0.0 0.0 0.00 0.03 0.03 95 1013.0
20260507113701 12 23 0.0 0.0 0.00 0.03 0.03 95 1013.4
20260507113157 12 21 0.0 0.0 0.00 0.03 0.03 95 1012.7
20260507112655 12 21 0.0 0.0 0.00 0.03 0.03 95 1012.7
20260507112152 12 20 1.6 1.6 0.00 0.03 0.03 95 1013.0
20260507111649 12 19 0.0 0.0 0.00 0.03 0.03 95 1012.7
20260507111146 12 1 0.0 0.0 0.00 0.03 0.03 95 1012.7
20260507110642 12 22 0.0 0.0 0.00 0.03 0.03 95 1012.4
20260507110139 12 15 0.0 0.0 0.00 0.03 0.03 95 1012.0
20260507105635 12 27 1.6 1.6 0.00 0.03 0.03 95 1012.4
20260507105131 12 5 0.0 1.6 0.00 0.03 0.03 95 1012.0
20260507104629 12 4 0.0 0.0 0.00 0.03 0.03 94 1012.4
20260507104125 12 23 1.6 1.6 0.00 0.03 0.03 94 1012.4
20260507103621 12 8 0.0 0.0 0.00 0.03 0.03 94 1012.4
20260507103118 12 17 0.0 0.0 0.00 0.03 0.03 94 1012.0
20260507102615 12 21 0.0 1.6 0.00 0.03 0.03 95 1012.0
20260507102111 12 354 0.0 0.0 0.00 0.03 0.03 95 1012.4
20260507101607 12 32 0.0 1.6 0.00 0.03 0.03 95 1012.0
20260507101103 12 1 0.0 0.0 0.00 0.03 0.03 95 1012.0
20260507100600 12 5 1.6 1.6 0.00 0.03 0.03 95 1012.0
20260507100058 12 12 0.0 0.0 0.00 0.03 0.03 96 1012.0
20260507095555 12 10 0.0 0.0 0.00 0.03 0.03 96 1012.4
20260507095047 12 16 0.0 0.0 0.00 0.03 0.03 96 1012.4
20260507094543 12 312 3.2 3.2 0.00 0.03 0.03 96 1011.7
20260507094040 12 4 0.0 0.0 0.00 0.03 0.03 96 1011.7
20260507093537 12 28 1.6 3.2 0.00 0.03 0.03 96 1011.7
20260507093036 12 23 1.6 1.6 0.00 0.03 0.03 97 1011.3
20260507092532 13 23 1.6 1.6 0.00 0.03 0.03 97 1012.0
20260507092029 13 318 1.6 3.2 0.00 0.03 0.03 97 1012.0
20260507091526 13 1 0.0 0.0 0.00 0.03 0.03 97 1012.0
20260507091022 13 17 0.0 1.6 0.00 0.03 0.03 97 1011.7
20260507090517 13 18 0.0 1.6 0.00 0.03 0.03 97 1011.7
20260507090015 13 4 1.6 3.2 0.00 0.03 0.03 97 1011.7
20260507085512 13 4 0.0 1.6 0.00 0.03 0.03 98 1012.0
20260507085008 13 13 0.0 0.0 0.00 0.03 0.03 98 1011.7
20260507084505 13 16 1.6 1.6 0.00 0.03 0.03 98 1011.7
20260507084002 14 11 0.0 0.0 0.00 0.03 0.03 99 1011.3
20260507083458 14 14 0.0 0.0 0.00 0.03 0.03 99 1011.3
20260507082955 14 12 0.0 0.0 0.00 0.03 0.03 99 1011.3
20260507082451 15 20 0.0 0.0 0.00 0.03 0.03 99 1011.3
20260507081948 15 23 0.0 1.6 0.00 0.03 0.03 99 1011.3
20260507081444 15 10 0.0 0.0 0.00 0.03 0.03 99 1011.3
20260507080941 16 26 3.2 3.2 0.00 0.03 0.03 99 1011.3
20260507080437 16 1 0.0 0.0 0.00 0.03 0.03 99 1010.7
20260507075932 17 21 0.0 0.0 0.00 0.03 0.03 99 1011.0
20260507075429 17 18 0.0 0.0 0.00 0.03 0.03 99 1010.7
20260507074925 17 18 0.0 0.0 0.00 0.03 0.03 99 1010.7
20260507074422 17 13 0.0 0.0 0.00 0.03 0.03 99 1010.7
20260507073920 17 14 0.0 0.0 0.00 0.03 0.03 99 1011.3
20260507073416 17 346 0.0 0.0 0.00 0.03 0.03 99 1011.0
20260507072913 17 25 0.0 0.0 0.00 0.03 0.03 99 1011.0
20260507072410 17 25 0.0 0.0 0.00 0.03 0.03 99 1010.7
20260507071903 17 24 0.0 0.0 0.00 0.03 0.03 99 1010.7
20260507071359 17 24 0.0 0.0 0.00 0.03 0.03 99 1011.0
20260507070855 17 24 0.0 0.0 0.00 0.03 0.03 99 1010.3
20260507070353 17 24 0.0 0.0 0.00 0.03 0.03 99 1010.3
20260507065850 17 24 0.0 0.0 0.00 0.03 0.03 99 1010.3
20260507065346 17 25 0.0 0.0 0.00 0.03 0.03 99 1010.3
20260507064843 17 25 0.0 0.0 0.00 0.03 0.03 99 1010.0
20260507064342 17 24 0.0 0.0 0.00 0.03 0.03 99 1010.0
20260507063840 17 25 0.0 0.0 0.00 0.03 0.03 99 1010.0
20260507063336 17 6 0.0 0.0 0.00 0.03 0.03 99 1010.3
20260507062833 17 5 0.0 0.0 0.00 0.03 0.03 99 1010.3
20260507062330 17 5 0.0 0.0 0.00 0.03 0.03 99 1010.7
20260507061828 17 12 0.0 0.0 0.00 0.03 0.03 99 1010.7
20260507061325 17 11 0.0 0.0 0.00 0.03 0.03 99 1010.7
20260507060824 17 6 0.0 0.0 0.00 0.03 0.03 99 1010.7
20260507060320 17 12 0.0 0.0 0.00 0.03 0.03 99 1011.0
20260507055817 17 359 1.6 3.2 0.00 0.03 0.03 99 1010.7
20260507055312 17 9 0.0 0.0 0.00 0.03 0.03 99 1010.3
20260507054809 17 22 0.0 0.0 0.00 0.03 0.03 99 1010.7
20260507054305 17 355 0.0 0.0 0.00 0.03 0.03 99 1010.7
20260507053803 17 19 1.6 1.6 0.00 0.03 0.03 99 1010.3
20260507053300 17 15 0.0 0.0 0.00 0.03 0.03 99 1010.0
20260507052759 17 49 0.0 1.6 0.00 0.03 0.03 99 1009.7
20260507052255 17 49 0.0 0.0 0.00 0.03 0.03 99 1009.7
20260507051753 17 44 0.0 0.0 0.00 0.03 0.03 99 1009.7
20260507051250 17 15 0.0 0.0 0.00 0.03 0.03 99 1009.7
20260507050747 17 358 0.0 0.0 0.00 0.03 0.03 99 1009.7
20260507050243 17 0 0.0 0.0 0.00 0.03 0.03 98 1010.0
20260507045740 17 352 0.0 0.0 0.00 0.03 0.03 98 1010.0
20260507045236 17 8 0.0 0.0 0.00 0.03 0.03 98 1009.7
20260507044734 17 12 0.0 0.0 0.00 0.03 0.03 98 1010.0
20260507044230 17 10 0.0 0.0 0.00 0.03 0.03 98 1010.3
20260507043726 17 348 0.0 1.6 0.13 0.03 0.03 97 1010.3
20260507043223 17 308 0.0 1.6 0.13 0.03 0.03 97 1010.3
20260507042719 17 19 0.0 0.0 0.00 0.00 0.00 97 1010.7
20260507042214 18 348 1.6 3.2 0.00 0.00 0.00 96 1010.7
20260507041712 18 345 0.0 0.0 0.00 0.00 0.00 96 1010.7
20260507041209 18 11 1.6 1.6 0.00 0.00 0.00 96 1010.7
20260507040706 18 345 1.6 3.2 0.00 0.00 0.00 95 1010.7
20260507040201 18 357 0.0 1.6 0.00 0.00 0.00 95 1010.7
20260507035658 18 69 1.6 1.6 0.00 0.13 0.13 94 1011.0
20260507035154 18 359 0.0 0.0 0.00 0.13 0.13 94 1011.0
20260507034650 18 320 1.6 1.6 0.00 0.13 0.13 94 1010.7
20260507034148 18 17 0.0 1.6 0.00 0.13 0.13 94 1010.7
20260507033647 18 356 0.0 0.0 0.00 0.13 0.13 94 1010.7
20260507033143 18 33 0.0 0.0 0.00 0.13 0.13 94 1011.0
20260507032641 18 14 0.0 0.0 0.00 0.13 0.13 93 1011.3
20260507032136 18 24 0.0 0.0 0.00 0.13 0.13 93 1011.3
20260507031634 18 25 0.0 0.0 0.00 0.13 0.13 92 1011.3
20260507031130 18 25 0.0 0.0 0.00 0.13 0.13 92 1011.0
20260507030627 18 19 0.0 0.0 0.00 0.13 0.13 92 1011.3
20260507030125 18 19 0.0 0.0 0.00 0.13 0.13 92 1011.3
20260507025622 18 19 0.0 1.6 0.00 0.13 0.13 92 1010.7
20260507025118 18 12 0.0 1.6 0.00 0.13 0.13 92 1010.7
20260507024617 18 42 0.0 0.0 0.00 0.13 0.13 93 1011.0
20260507024114 17 44 0.0 0.0 0.00 0.13 0.13 94 1011.3
20260507023609 17 36 0.0 0.0 0.00 0.13 0.13 93 1011.0
20260507023107 18 36 0.0 0.0 0.00 0.13 0.13 93 1011.0
20260507022603 18 36 0.0 0.0 0.00 0.13 0.13 93 1010.7
20260507022053 18 36 0.0 0.0 0.00 0.13 0.13 92 1010.7
20260507021549 18 36 0.0 0.0 0.00 0.13 0.13 92 1010.3
20260507021045 18 36 0.0 0.0 0.00 0.13 0.13 92 1010.3
20260507020544 18 37 0.0 0.0 0.00 0.13 0.13 91 1010.0
20260507020040 18 37 0.0 0.0 0.00 0.13 0.13 91 1010.3
20260507015538 18 36 0.0 0.0 0.00 0.13 0.13 91 1010.3
20260507015035 18 36 0.0 0.0 0.00 0.13 0.13 91 1010.3
20260507014531 18 36 0.0 0.0 0.00 0.13 0.13 90 1010.3
20260507014027 18 26 0.0 0.0 0.00 0.13 0.13 90 1010.7
20260507013524 18 27 0.0 1.6 0.00 0.13 0.13 90 1010.7
20260507013021 18 343 1.6 3.2 0.00 0.13 0.13 90 1011.0
20260507012518 18 34 0.0 0.0 0.00 0.13 0.13 90 1010.7
20260507012014 18 22 0.0 0.0 0.00 0.13 0.13 90 1011.0
20260507011512 18 19 0.0 1.6 0.00 0.13 0.13 90 1010.7
20260507011008 18 21 0.0 0.0 0.00 0.13 0.13 89 1010.7
20260507010502 18 21 0.0 0.0 0.00 0.13 0.13 89 1011.0
20260507005959 18 29 1.6 3.2 0.00 0.13 0.13 89 1011.0
20260507005456 18 37 1.6 3.2 0.00 0.13 0.13 89 1010.7
20260507004953 18 48 1.6 1.6 0.00 0.13 0.13 89 1011.0
20260507004450 19 322 0.0 1.6 0.00 0.13 0.13 88 1010.7
20260507003948 19 46 0.0 0.0 0.00 0.13 0.13 88 1010.7
20260507003442 19 344 1.6 1.6 0.00 0.13 0.13 88 1010.7
20260507002937 19 345 0.0 0.0 0.00 0.13 0.13 88 1010.7
20260507002434 19 41 1.6 1.6 0.00 0.13 0.13 87 1010.3
20260507001931 19 358 0.0 1.6 0.00 0.13 0.13 87 1010.7
20260507001427 19 353 0.0 0.0 0.00 0.13 0.13 87 1010.7
20260507000925 19 350 0.0 1.6 0.00 0.13 0.13 87 1010.7
20260507000421 20 358 0.0 0.0 0.00 0.13 0.13 86 1010.7
20260506235916 20 20 0.0 0.0 0.00 0.13 0.13 86 1010.7
20260506235414 20 57 1.6 1.6 0.00 0.13 0.13 86 1010.7
20260506234909 20 36 0.0 1.6 0.00 0.13 0.13 86 1010.3
20260506234408 20 323 1.6 3.2 0.00 0.13 0.13 85 1010.3
20260506233905 20 303 1.6 1.6 0.00 0.13 0.13 84 1010.3
20260506233400 20 134 1.6 1.6 0.00 0.13 0.13 84 1010.7
20260506232858 20 312 0.0 1.6 0.00 0.13 0.13 84 1010.7
20260506232354 20 326 0.0 1.6 0.00 0.13 0.13 84 1010.7
20260506231850 20 12 0.0 0.0 0.00 0.13 0.13 83 1010.7
20260506231348 20 344 0.0 1.6 0.00 0.13 0.13 84 1010.7
20260506230845 20 324 1.6 1.6 0.00 0.13 0.13 84 1010.7
20260506230342 20 54 1.6 1.6 0.00 0.13 0.13 83 1010.7
20260506225838 20 141 1.6 3.2 0.00 0.13 0.13 82 1010.3
20260506225335 20 32 1.6 1.6 0.00 0.13 0.13 82 1010.7
20260506224832 20 30 1.6 3.2 0.00 0.13 0.13 82 1010.3
20260506224329 20 2 1.6 1.6 0.00 0.13 0.13 82 1010.3
20260506223825 20 298 0.0 1.6 0.00 0.13 0.13 82 1010.3
20260506223315 21 21 1.6 1.6 0.00 0.13 0.13 81 1010.3
20260506222813 21 348 0.0 0.0 0.00 0.13 0.13 83 1010.0
20260506222308 21 310 1.6 1.6 0.00 0.13 0.13 82 1010.3
20260506221806 21 4 0.0 1.6 0.00 0.13 0.13 81 1010.0
20260506221303 21 318 0.0 1.6 0.00 0.13 0.13 83 1010.0